Asuncion, Paraguay

11:44 PM -03 en Diciembre 11, 2017 (GMT -0300)
Silvio Pettirossi International

Tiempo Historia de SGAS - Octubre, 2017

Change the Weather History Date:

Viernes, Octubre 13, 2017

  Actual Average Record
Temperature  
Temperatura media 66 ° F -  
Temperatura máxima 73 ° F 85 ° F 102 ° F (1999)
Temperatura mínima 59 ° F 66 ° F 52 ° F (2015)
Cooling Degree Days 1    
Growing Degree Days 16 (Base 50)    
Moisture  
Punto de rocío 60 ° F    
Average Humidity 89    
Maximum Humidity 100    
Minimum Humidity 78    
Precipitación  
Precipitación 0.28 pul 0.17 pul - ()
Presión al nivel del mar  
Presión al nivel del mar 30.00 pul    
Viento  
Velocidad del viento 13 mph ()    
Velocidad máxima del viento 18 mph    
Max Gust Speed -    
Visibilidad 5.6 Millas    
Eventos Lluvia , Tormenta    
Averages and records for this station are not official NWS values.
T = Trace of Precipitation, MM = Missing Value Source: Averaged Metar Reports

Daily Weather History Graph

Daily Weather History Graph

Search for Another Location

Airport or City:

Trip Planner

Search our weather history database for the weather conditions in past years. The results will help you decide how hot, cold, wet, or windy it might be!

Date:

Astronomía

Oct. 13, 2017 Salida Puesta
Hora real 6:17 AM -03 6:55 PM -03
Crepúsculo civil 5:54 AM -03 7:18 PM -03
Crepúsculo náutico 5:27 AM -03 7:45 PM -03
Crepúsculo astronómico 4:59 AM -03 8:13 PM -03
Luna 2:01 AM -03 (10/13) 1:15 PM -03 (10/13)
Horas de luz 13h 24m
Horas de luz
12h 37m
Cuarto menguante, 38% of the Moon is Illuminated
Oct 13
Cuarto menguante
Oct 19
Nueva
Oct 27
Cuarto creciente
Nov 4
Luna llena
Nov 10
Cuarto menguante

Hourly Weather History & Observations

Hora (-03) Temp. Punto de rocío Humedad Presión Visibilidad Wind Dir Velocidad del viento Velocidad de ráfagas Precip Eventos Condiciones
12:00 AM 72 ° F 68 ° F 85% 29.89 pul 6 mi SO 18.4 mph - - Lluvia Llovizna débil
12:00 AM 71.6 ° F 68.0 ° F 88% 29.89 pul 5.6 mi SO 18.4 mph - N/A   Llovizna débil
1:00 AM 69.8 ° F 66.2 ° F 88% 29.89 pul 6.2 mi SO 17.3 mph - N/A   Llovizna débil
2:00 AM 68.0 ° F 66.2 ° F 94% 29.89 pul 5.6 mi SO 16.1 mph - N/A   Llovizna débil
3:00 AM 67 ° F 65 ° F 92% 29.92 pul 4 mi SSO 15.0 mph - - Lluvia Llovizna
4:00 AM 66.2 ° F 64.4 ° F 94% 29.89 pul 4.3 mi SO 15.0 mph - N/A   Llovizna
5:00 AM 64.4 ° F 62.6 ° F 94% 29.92 pul 6.2 mi SO 12.7 mph - N/A   Llovizna débil
6:00 AM 64 ° F 62 ° F 90% 29.95 pul 4 mi OSO 16.1 mph - - Lluvia Llovizna
6:00 AM 62.6 ° F 60.8 ° F 94% 29.95 pul 4.3 mi OSO 16.1 mph - N/A   Llovizna
7:00 AM 62.6 ° F 60.8 ° F 94% 29.95 pul 5.6 mi OSO 13.8 mph - N/A   Llovizna
8:00 AM 62.6 ° F 59.0 ° F 88% 29.98 pul 6.2 mi OSO 11.5 mph - N/A   Nublado
8:05 AM 62.6 ° F 59.0 ° F 88% 29.98 pul 6.2 mi OSO 12.7 mph - N/A Tormenta Tormenta
8:15 AM 62.6 ° F 59.0 ° F 88% 29.98 pul 5.0 mi SO 11.5 mph - N/A Lluvia , Tormenta Tormenta
8:30 AM 60.8 ° F 59.0 ° F 94% 30.01 pul 1.2 mi OSO 16.1 mph - N/A Lluvia , Tormenta Tormenta fuerte
9:00 AM 61 ° F 58 ° F 88% 30.02 pul 1 mi OSO 11.5 mph - - Lluvia , Tormenta Tormenta
9:00 AM 59.0 ° F 59.0 ° F 100% 30.04 pul 1.2 mi OSO 11.5 mph - N/A Lluvia , Tormenta Tormenta fuerte
9:30 AM 60.8 ° F 60.8 ° F 100% 30.01 pul 5.6 mi SO 12.7 mph - N/A Lluvia , Tormenta Tormenta
10:00 AM 62.6 ° F 59.0 ° F 88% 30.01 pul 6.2 mi SO 15.0 mph - N/A Lluvia , Tormenta Tormenta débil
10:30 AM 62.6 ° F 59.0 ° F 88% 30.01 pul 6.2 mi SO 15.0 mph - N/A Lluvia , Tormenta Tormenta débil
11:00 AM 60.8 ° F 59.0 ° F 94% 30.01 pul 6.2 mi SO 11.5 mph - N/A Lluvia , Tormenta Tormenta débil
12:00 PM 62 ° F 60 ° F 90% 30.04 pul 9 mi SO 12.7 mph - - Lluvia Lluvia débil
12:00 PM 62.6 ° F 59.0 ° F 88% 30.04 pul 6.2 mi SO 12.7 mph - N/A Lluvia Lluvia débil
1:00 PM 62.6 ° F 59.0 ° F 88% 30.06 pul 6.2 mi OSO 11.5 mph - N/A   Nublado
1:26 PM 60.8 ° F 59.0 ° F 94% 30.04 pul 1.9 mi SO 15.0 mph - N/A   Llovizna abundante
2:00 PM 60.8 ° F 59.0 ° F 94% 30.04 pul 3.7 mi SO 10.4 mph - N/A   Llovizna
3:00 PM 64 ° F 59 ° F 79% 30.03 pul 12 mi SO 12.7 mph - -   Nublado
3:00 PM 62.6 ° F 59.0 ° F 88% 30.04 pul 6.2 mi SO 12.7 mph - N/A   Nublado
4:00 PM 62.6 ° F 57.2 ° F 82% 30.04 pul 6.2 mi OSO 11.5 mph - N/A   Nublado
5:00 PM 62.6 ° F 57.2 ° F 82% 30.01 pul 6.2 mi SSO 15.0 mph - N/A   Nublado
6:00 PM 62 ° F 60 ° F 89% 30.01 pul 12 mi SO 17.3 mph - -   Nublado
6:00 PM 62.6 ° F 57.2 ° F 82% 29.98 pul 6.2 mi SO 17.3 mph - N/A   Nublado
7:00 PM 62.6 ° F 57.2 ° F 82% 30.04 pul 6.2 mi SO 16.1 mph - N/A   Llovizna débil
8:00 PM 62.6 ° F 57.2 ° F 82% 30.04 pul 6.2 mi Sur 13.8 mph - N/A   Nublado
8:24 PM 62.6 ° F 57.2 ° F 82% 30.06 pul 5.0 mi Sur 12.7 mph - N/A   Llovizna débil
9:00 PM 62 ° F 57 ° F 78% 30.07 pul 6 mi Sur 11.5 mph - - Lluvia Llovizna débil
9:00 PM 62.6 ° F 57.2 ° F 82% 30.06 pul 5.6 mi SSO 11.5 mph - N/A   Llovizna débil
10:00 PM 60.8 ° F 57.2 ° F 88% 30.09 pul 5.6 mi SSO 10.4 mph - N/A   Nublado
11:00 PM 60.8 ° F 59.0 ° F 94% 30.09 pul 4.3 mi SO 9.2 mph - N/A   Llovizna